Weather History for Hilo, HI

Change the Weather History Date:

Wednesday, February 12, 2014

  Actual Average Record
Temperature  
Mean Temperature 75 °F 71 °F  
Max Temperature 83 °F 79 °F 86 °F (1968)
Min Temperature 67 °F 63 °F 56 °F (1995)
Degree Days  
Heating Degree Days 0 0  
Month to date heating degree days 0 0  
Since 1 July heating degree days 0 0  
Cooling Degree Days 10 6  
Month to date cooling degree days 120 72  
Year to date cooling degree days 332 270  
Growing Degree Days 24 (Base 50)    
Moisture  
Dew Point 65 °F    
Average Humidity 76    
Maximum Humidity 93    
Minimum Humidity 58    
Precipitation  
Precipitation 0.00 in 0.34 in 2.14 in (1994)
Month to date precipitation 0.73 4.01  
Year to date precipitation 6.39 13.27  
Snow  
Snow 0.00 in - - ()
Month to date snowfall 0.0  
Since 1 July snowfall 0.0  
Snow Depth 0.00 in    
Sea Level Pressure  
Sea Level Pressure 29.96 in    
Wind  
Wind Speed 9 mph (South)    
Max Wind Speed 21 mph    
Max Gust Speed 25 mph    
Visibility 10 miles    
Events      
T = Trace of Precipitation, MM = Missing Value Source: NWS Daily Summary

Daily Weather History Graph

Daily Weather History Graph

Search for Another Location

Airport:

Trip Planner

Search our weather history database for the weather conditions in past years. The results will help you decide how hot, cold, wet, or windy it might be!

Date:

Astronomy

Feb. 12, 2014 Rise Set
Actual Time 6:50 AM HST 6:18 PM HST
Civil Twilight 6:28 AM HST 6:41 PM HST
Nautical Twilight 6:02 AM HST 7:07 PM HST
Astronomical Twilight 5:36 AM HST 7:32 PM HST
Moon 4:46 PM HST (2/12) 5:08 AM HST (2/12)
Length of Visible Light 12h 12m
Length of Day
11h 27m
Waxing Gibbous, 96% of the Moon is Illuminated
Feb 12
Waxing Gibbous
Feb 14
Full
Feb 22
Last Quarter
Feb 28
New
Mar 8
First Quarter

Hourly Weather History & Observations

Time (HST) Temp. Heat Index Dew Point Humidity Pressure Visibility Wind Dir Wind Speed Gust Speed Precip Events Conditions
12:53 AM 70.0 °F - 66.9 °F 90% 30.02 in 10.0 mi WSW 5.8 mph - N/A   Overcast
1:53 AM 70.0 °F - 63.0 °F 78% 30.01 in 10.0 mi WSW 6.9 mph - N/A   Overcast
2:53 AM 69.1 °F - 64.0 °F 84% 29.99 in 10.0 mi SW 5.8 mph - N/A   Mostly Cloudy
3:53 AM 70.0 °F - 62.1 °F 76% 29.98 in 10.0 mi SW 4.6 mph - N/A   Mostly Cloudy
4:53 AM 69.1 °F - 61.0 °F 75% 29.98 in 10.0 mi SW 5.8 mph - N/A   Mostly Cloudy
5:53 AM 66.9 °F - 63.0 °F 87% 29.99 in 10.0 mi WSW 8.1 mph - N/A   Scattered Clouds
6:53 AM 69.1 °F - 63.0 °F 81% 30.00 in 10.0 mi WSW 6.9 mph - N/A   Mostly Cloudy
7:53 AM 68.0 °F - 61.0 °F 78% 30.01 in 10.0 mi SW 6.9 mph - N/A   Scattered Clouds
8:53 AM 75.0 °F - 64.9 °F 71% 30.01 in 10.0 mi SW 4.6 mph - N/A   Mostly Cloudy
9:53 AM 79.0 °F - 64.0 °F 60% 30.02 in 10.0 mi SSE 11.5 mph - N/A   Scattered Clouds
10:53 AM 79.0 °F - 66.0 °F 64% 30.01 in 10.0 mi SE 10.4 mph - N/A   Mostly Cloudy
11:53 AM 81.0 °F 83.3 °F 66.9 °F 62% 29.98 in 10.0 mi ESE 11.5 mph - N/A   Partly Cloudy
12:53 PM 82.9 °F 85.8 °F 68.0 °F 60% 29.95 in 10.0 mi ESE 15.0 mph - N/A   Partly Cloudy
1:53 PM 82.0 °F 84.5 °F 66.9 °F 60% 29.91 in 10.0 mi East 17.3 mph - N/A   Clear
2:53 PM 81.0 °F 83.3 °F 66.9 °F 62% 29.90 in 10.0 mi ESE 15.0 mph - N/A   Partly Cloudy
3:53 PM 79.0 °F - 64.9 °F 62% 29.89 in 10.0 mi ESE 13.8 mph - N/A   Scattered Clouds
4:53 PM 78.1 °F - 66.9 °F 68% 29.89 in 10.0 mi SE 16.1 mph - N/A   Clear
5:53 PM 77.0 °F - 66.9 °F 71% 29.91 in 10.0 mi SSE 9.2 mph - N/A   Overcast
6:53 PM 75.0 °F - 64.0 °F 69% 29.92 in 10.0 mi SSE 8.1 mph - N/A   Overcast
7:53 PM 73.0 °F - 64.9 °F 76% 29.94 in 10.0 mi SSW 5.8 mph - N/A   Mostly Cloudy
8:53 PM 71.1 °F - 64.9 °F 81% 29.95 in 10.0 mi SSW 5.8 mph - N/A   Clear
9:53 PM 70.0 °F - 64.9 °F 84% 29.96 in 10.0 mi SSW 4.6 mph - N/A   Clear
10:53 PM 69.1 °F - 64.9 °F 87% 29.96 in 10.0 mi SW 4.6 mph - N/A   Scattered Clouds
11:53 PM 69.1 °F - 64.9 °F 87% 29.95 in 10.0 mi SW 5.8 mph - N/A   Mostly Cloudy